STARLINK-1463 (45771 NORAD) Tracking and Keplerian Element Data

This shows tracking and keplerian element data for the satellite.

Feedback or suggestion? Click here.




ElementValue
Catalog45771
NameSTARLINK-1463
Epoch Orbit462
Epoch Day186.50001157
Epoch Year2020
RAAN192.6907
Inclination53.0002
Eccentricity0.0001402
Argument of Perigee78.5829
Mean Anonmoly135.9568
Mean Motion15.62800829
Decay Rate-0.0004929
L11 45771U 20038AT 20186.50001157 -.00049290 00000-0 -53471-3 0 9992
L22 45771 53.0002 192.6907 0001402 78.5829 135.9568 15.62800829 4626

Live tracking and technical data element details for STARLINK-1463 (NORAD 45771). STARLINK-1463 can be tracked NOW for your location showing map with azimuth and elevation plus other details from your city location.

Track the satellite on the map from your city or location and see movement details for azimuth, elevation, latitude, longitude, range, height, and movement on the map or in text.







IsCatalogInMostPopularTable: catalog: 45771, numindb: 4
Update: records affected: 1



GetName: 45771 STARLINK-1463

Hit Count: updated at: Sun, 05 Jul 2020 15:55:21 GMT